Location: Colorado National Monument
(39.1030°N, 108.7297°W)
Time: 23:18:42
(UTC-06:00)

ISS - Visible Passes

Search period start: 23 October 2019 00:00
Search period end: 02 November 2019 00:00
Orbit: 411 x 421 km, 51.6° (Epoch: 24 October)

Date Brightness Start Highest point End Pass type
(mag) Time Alt. Az. Time Alt. Az. Time Alt. Az.
24 Oct -2.6 06:30:52 10° SSW 06:34:05 44° SE 06:37:17 10° ENE visible
25 Oct -1.6 05:44:20 19° SSE 05:45:36 24° SE 05:48:23 10° ENE visible
26 Oct -0.4 04:58:31 11° ESE 04:58:31 11° ESE 04:58:56 10° E visible
26 Oct -3.7 06:31:28 21° WSW 06:33:33 60° NW 06:36:52 10° NE visible
27 Oct -3.3 05:45:26 59° ENE 05:45:26 59° ENE 05:48:17 10° NE visible
28 Oct -0.3 04:59:15 12° ENE 04:59:15 12° ENE 04:59:32 10° ENE visible
28 Oct -2.5 06:32:10 22° WNW 06:33:10 26° NNW 06:36:03 10° NNE visible
29 Oct -2.0 05:45:49 25° NNE 05:45:49 25° NNE 05:47:36 10° NE visible
30 Oct -1.7 06:32:17 14° NNW 06:32:58 15° NNW 06:35:00 10° NNE visible
31 Oct -1.2 05:45:45 14° NNE 05:45:45 14° NNE 05:46:37 10° NNE visible
01 Nov -1.3 06:32:03 10° NNW 06:32:51 11° N 06:33:45 10° N visible
